| time (UTC) | temp F | wind direction | speed MPH | gust MPH | rain 1hr in | rain 24hr in | rain mn in | humidity % | barometer mb |
| 20260905205005 | 54 | 275 | 2.0 | 7.0 | 0.00 | 0.25 | 0.05 | 91 | 1016.9 |
| 20260905204005 | 54 | 268 | 2.0 | 8.0 | 0.00 | 0.28 | 0.05 | 91 | 1016.6 |
| 20260905203005 | 54 | 251 | 3.0 | 12.0 | 0.00 | 0.30 | 0.05 | 91 | 1016.3 |
| 20260905202005 | 54 | 246 | 5.0 | 8.0 | 0.00 | 0.32 | 0.05 | 91 | 1016.3 |
| 20260905200005 | 54 | 247 | 5.0 | 12.0 | 0.00 | 0.33 | 0.05 | 91 | 1016.0 |
| 20260905195005 | 54 | 248 | 6.0 | 12.0 | 0.00 | 0.33 | 0.05 | 91 | 1015.9 |
| 20260905193005 | 54 | 228 | 7.0 | 13.0 | 0.00 | 0.36 | 0.05 | 90 | 1015.6 |
| 20260905192005 | 54 | 232 | 4.0 | 13.0 | 0.00 | 0.36 | 0.05 | 90 | 1015.6 |
| 20260905191005 | 54 | 239 | 6.0 | 16.0 | 0.00 | 0.36 | 0.05 | 90 | 1015.5 |
| 20260905190006 | 54 | 251 | 7.0 | 18.0 | 0.00 | 0.38 | 0.05 | 90 | 1015.3 |
| 20260905185005 | 54 | 242 | 6.0 | 14.0 | 0.00 | 0.41 | 0.05 | 91 | 1015.2 |
| 20260905184005 | 54 | 253 | 7.0 | 14.0 | 0.02 | 0.44 | 0.05 | 91 | 1015.1 |
| 20260905183007 | 54 | 237 | 6.0 | 14.0 | 0.02 | 0.44 | 0.05 | 90 | 1014.8 |
| 20260905182005 | 55 | 238 | 7.0 | 16.0 | 0.02 | 0.45 | 0.05 | 90 | 1014.5 |
| 20260905181005 | 55 | 250 | 7.0 | 12.0 | 0.02 | 0.45 | 0.05 | 90 | 1014.4 |
| 20260905180005 | 55 | 247 | 6.0 | 14.0 | 0.02 | 0.45 | 0.05 | 90 | 1014.2 |
| 20260905174005 | 55 | 248 | 4.0 | 14.0 | 0.00 | 0.48 | 0.03 | 90 | 1013.8 |
| 20260905171005 | 55 | 247 | 7.0 | 14.0 | 0.00 | 0.51 | 0.03 | 90 | 1013.1 |
| 20260905170004 | 55 | 238 | 8.0 | 17.0 | 0.00 | 0.51 | 0.03 | 90 | 1012.9 |
| 20260905165005 | 55 | 249 | 7.0 | 17.0 | 0.00 | 0.51 | 0.03 | 91 | 1012.8 |
| 20260905164004 | 54 | 245 | 6.0 | 15.0 | 0.01 | 0.52 | 0.03 | 91 | 1012.5 |
| 20260905163006 | 54 | 235 | 8.0 | 16.0 | 0.02 | 0.53 | 0.03 | 91 | 1012.5 |
| 20260905162008 | 54 | 260 | 8.0 | 15.0 | 0.02 | 0.53 | 0.03 | 91 | 1012.3 |
| 20260905161005 | 54 | 251 | 10.0 | 18.0 | 0.02 | 0.54 | 0.03 | 91 | 1012.1 |
| 20260905160006 | 54 | 249 | 6.0 | 14.0 | 0.02 | 0.54 | 0.03 | 91 | 1012.0 |
| 20260905155005 | 54 | 264 | 7.0 | 16.0 | 0.02 | 0.54 | 0.03 | 91 | 1011.8 |
| 20260905153006 | 54 | 261 | 8.0 | 14.0 | 0.00 | 0.52 | 0.01 | 91 | 1011.4 |
| 20260905152005 | 54 | 262 | 9.0 | 20.0 | 0.00 | 0.53 | 0.01 | 91 | 1011.2 |
| 20260905151005 | 53 | 276 | 7.0 | 14.0 | 0.00 | 0.53 | 0.01 | 91 | 1011.0 |
| 20260905150005 | 53 | 270 | 9.0 | 16.0 | 0.01 | 0.54 | 0.01 | 91 | 1010.8 |
| 20260905144005 | 53 | 269 | 7.0 | 16.0 | 0.01 | 0.59 | 0.01 | 91 | 1010.3 |
| 20260905143006 | 53 | 275 | 10.0 | 17.0 | 0.01 | 0.62 | 0.01 | 91 | 1010.1 |
| 20260905142005 | 53 | 275 | 12.0 | 20.0 | 0.04 | 0.62 | 0.01 | 91 | 1010.0 |
| 20260905141005 | 53 | 254 | 9.0 | 17.0 | 0.04 | 0.62 | 0.01 | 91 | 1009.8 |
| 20260905140005 | 53 | 266 | 9.0 | 20.0 | 0.03 | 0.61 | 0.00 | 91 | 1009.7 |
| 20260905135005 | 53 | 270 | 9.0 | 18.0 | 0.03 | 0.61 | 0.61 | 91 | 1009.6 |
| 20260905134006 | 53 | 281 | 10.0 | 18.0 | 0.03 | 0.61 | 0.61 | 91 | 1009.3 |
| 20260905133004 | 53 | 277 | 10.0 | 20.0 | 0.04 | 0.61 | 0.61 | 90 | 1009.0 |
| 20260905132005 | 53 | 275 | 9.0 | 17.0 | 0.01 | 0.58 | 0.58 | 90 | 1008.8 |
| 20260905131004 | 53 | 278 | 8.0 | 21.0 | 0.01 | 0.58 | 0.58 | 89 | 1008.7 |
| 20260905130005 | 53 | 264 | 10.0 | 21.0 | 0.01 | 0.58 | 0.58 | 88 | 1008.7 |
| 20260905125005 | 53 | 283 | 14.0 | 23.0 | 0.01 | 0.58 | 0.58 | 87 | 1008.6 |
| 20260905124006 | 54 | 281 | 10.0 | 20.0 | 0.01 | 0.58 | 0.58 | 86 | 1008.3 |
| 20260905122007 | 54 | 293 | 12.0 | 23.0 | 0.00 | 0.57 | 0.57 | 83 | 1007.9 |
| 20260905121006 | 54 | 280 | 10.0 | 21.0 | 0.00 | 0.57 | 0.57 | 82 | 1007.8 |
| 20260905120005 | 55 | 289 | 9.0 | 20.0 | 0.00 | 0.57 | 0.57 | 82 | 1007.8 |
| 20260905115005 | 55 | 288 | 10.0 | 21.0 | 0.00 | 0.57 | 0.57 | 81 | 1007.7 |
| 20260905113005 | 54 | 287 | 13.0 | 24.0 | 0.00 | 0.57 | 0.57 | 81 | 1007.4 |
| 20260905112007 | 54 | 277 | 9.0 | 26.0 | 0.00 | 0.57 | 0.57 | 81 | 1007.3 |
| 20260905111005 | 54 | 283 | 13.0 | 22.0 | 0.00 | 0.57 | 0.57 | 81 | 1007.1 |
| 20260905110005 | 54 | 274 | 10.0 | 18.0 | 0.00 | 0.57 | 0.57 | 81 | 1007.2 |
| 20260905105005 | 54 | 279 | 13.0 | 26.0 | 0.00 | 0.57 | 0.57 | 80 | 1006.9 |
| 20260905104006 | 54 | 281 | 11.0 | 20.0 | 0.00 | 0.57 | 0.57 | 80 | 1007.0 |
| 20260905103005 | 54 | 273 | 10.0 | 20.0 | 0.00 | 0.57 | 0.57 | 80 | 1006.8 |
| 20260905102005 | 54 | 286 | 10.0 | 21.0 | 0.00 | 0.57 | 0.57 | 80 | 1006.5 |
| 20260905101006 | 55 | 282 | 9.0 | 20.0 | 0.00 | 0.57 | 0.57 | 79 | 1006.4 |
| 20260905100005 | 54 | 289 | 12.0 | 22.0 | 0.00 | 0.57 | 0.57 | 80 | 1006.0 |
| 20260905095004 | 54 | 275 | 11.0 | 20.0 | 0.00 | 0.57 | 0.57 | 81 | 1006.0 |
| 20260905094005 | 54 | 305 | 7.0 | 13.0 | 0.00 | 0.57 | 0.57 | 81 | 1005.8 |
| 20260905093004 | 54 | 303 | 6.0 | 10.0 | 0.00 | 0.57 | 0.57 | 80 | 1005.7 |
| 20260905091005 | 54 | 290 | 6.0 | 12.0 | 0.00 | 0.57 | 0.57 | 79 | 1005.5 |
| 20260905084005 | 55 | 269 | 10.0 | 15.0 | 0.00 | 0.57 | 0.57 | 79 | 1004.7 |
| 20260905083006 | 55 | 263 | 10.0 | 20.0 | 0.00 | 0.57 | 0.57 | 79 | 1004.6 |
| 20260905082005 | 55 | 258 | 8.0 | 18.0 | 0.00 | 0.57 | 0.57 | 80 | 1004.5 |
| 20260905081006 | 54 | 281 | 5.0 | 12.0 | 0.00 | 0.57 | 0.57 | 81 | 1004.3 |
| 20260905080005 | 55 | 271 | 5.0 | 14.0 | 0.01 | 0.57 | 0.57 | 81 | 1004.1 |
| 20260905075005 | 55 | 270 | 7.0 | 15.0 | 0.01 | 0.57 | 0.57 | 81 | 1003.9 |
| 20260905072005 | 57 | 262 | 11.0 | 26.0 | 0.01 | 0.57 | 0.57 | 78 | 1003.6 |
| 20260905071005 | 57 | 278 | 11.0 | 25.0 | 0.01 | 0.57 | 0.57 | 76 | 1003.6 |
| 20260905070005 | 59 | 268 | 12.0 | 23.0 | 0.00 | 0.56 | 0.56 | 72 | 1003.1 |
| 20260905065006 | 59 | 263 | 9.0 | 15.0 | 0.00 | 0.56 | 0.56 | 72 | 1002.8 |
| 20260905064006 | 59 | 274 | 9.0 | 16.0 | 0.00 | 0.56 | 0.56 | 71 | 1002.6 |
| 20260905063005 | 59 | 278 | 9.0 | 16.0 | 0.00 | 0.56 | 0.56 | 73 | 1002.8 |
| 20260905062005 | 59 | 273 | 9.0 | 18.0 | 0.00 | 0.56 | 0.56 | 75 | 1002.7 |
| 20260905061005 | 58 | 263 | 6.0 | 26.0 | 0.00 | 0.56 | 0.56 | 74 | 1002.5 |
| 20260905055005 | 62 | 247 | 7.0 | 14.0 | 0.00 | 0.56 | 0.56 | 62 | 1002.1 |
| 20260905054005 | 64 | 267 | 8.0 | 21.0 | 0.00 | 0.56 | 0.56 | 60 | 1002.1 |
| 20260905053005 | 65 | 267 | 10.0 | 23.0 | 0.00 | 0.56 | 0.56 | 58 | 1002.2 |
| 20260905052005 | 65 | 268 | 9.0 | 20.0 | 0.00 | 0.56 | 0.56 | 59 | 1002.1 |
| 20260905050007 | 65 | 279 | 10.0 | 26.0 | 0.00 | 0.56 | 0.56 | 60 | 1002.0 |
| 20260905045004 | 65 | 262 | 8.0 | 20.0 | 0.00 | 0.56 | 0.56 | 63 | 1001.9 |
| 20260905044005 | 65 | 265 | 12.0 | 22.0 | 0.00 | 0.56 | 0.56 | 62 | 1001.8 |
| 20260905043005 | 65 | 267 | 12.0 | 22.0 | 0.00 | 0.56 | 0.56 | 62 | 1001.7 |
| 20260905041005 | 65 | 258 | 12.0 | 23.0 | 0.00 | 0.56 | 0.56 | 62 | 1001.6 |
| 20260905035005 | 64 | 277 | 10.0 | 20.0 | 0.00 | 0.56 | 0.56 | 63 | 1001.6 |
| 20260905034006 | 63 | 270 | 14.0 | 32.0 | 0.00 | 0.56 | 0.56 | 66 | 1001.7 |
| 20260905033005 | 62 | 275 | 16.0 | 28.0 | 0.02 | 0.56 | 0.56 | 69 | 1001.7 |
| 20260905032005 | 61 | 280 | 13.0 | 20.0 | 0.04 | 0.56 | 0.56 | 78 | 1001.8 |
| 20260905031004 | 59 | 276 | 9.0 | 14.0 | 0.04 | 0.56 | 0.56 | 83 | 1001.9 |
| 20260905030005 | 57 | 262 | 9.0 | 18.0 | 0.04 | 0.56 | 0.56 | 84 | 1001.9 |
| 20260905025005 | 57 | 280 | 7.0 | 17.0 | 0.05 | 0.56 | 0.56 | 85 | 1002.0 |
| 20260905024005 | 55 | 257 | 9.0 | 22.0 | 0.05 | 0.56 | 0.56 | 84 | 1002.1 |
| 20260905023005 | 57 | 261 | 11.0 | 26.0 | 0.03 | 0.54 | 0.54 | 76 | 1002.7 |
| 20260905021005 | 64 | 300 | 10.0 | 18.0 | 0.01 | 0.52 | 0.52 | 73 | 1001.3 |
| 20260905015005 | 65 | 312 | 6.0 | 20.0 | 0.00 | 0.51 | 0.51 | 73 | 1001.9 |
| 20260905014005 | 64 | 318 | 11.0 | 22.0 | 0.00 | 0.51 | 0.51 | 75 | 1002.0 |
| 20260905012005 | 63 | 302 | 10.0 | 21.0 | 0.00 | 0.51 | 0.51 | 77 | 1002.2 |
| 20260905011005 | 62 | 312 | 10.0 | 18.0 | 0.00 | 0.51 | 0.51 | 77 | 1002.3 |
| 20260905010004 | 62 | 318 | 7.0 | 15.0 | 0.00 | 0.51 | 0.51 | 79 | 1002.4 |
| 20260905005006 | 61 | 302 | 7.0 | 15.0 | 0.00 | 0.51 | 0.51 | 80 | 1002.5 |
| 20260905004005 | 61 | 337 | 5.0 | 15.0 | 0.00 | 0.51 | 0.51 | 81 | 1002.5 |
| 20260905003004 | 61 | 316 | 5.0 | 12.0 | 0.00 | 0.51 | 0.51 | 81 | 1002.5 |
| 20260905002008 | 60 | 327 | 3.0 | 10.0 | 0.00 | 0.51 | 0.51 | 81 | 1002.5 |
| 20260905000004 | 60 | 326 | 8.0 | 17.0 | 0.00 | 0.51 | 0.51 | 82 | 1002.7 |
| 20260904234005 | 59 | 322 | 7.0 | 17.0 | 0.00 | 0.51 | 0.51 | 85 | 1002.6 |
| 20260904233006 | 59 | 334 | 7.0 | 14.0 | 0.00 | 0.51 | 0.51 | 86 | 1002.7 |
| 20260904232007 | 58 | 355 | 7.0 | 15.0 | 0.00 | 0.51 | 0.51 | 87 | 1002.7 |
| 20260904230004 | 58 | 351 | 6.0 | 16.0 | 0.00 | 0.51 | 0.51 | 88 | 1002.9 |
| 20260904225005 | 57 | 0 | 7.0 | 13.0 | 0.00 | 0.51 | 0.51 | 89 | 1003.0 |
| 20260904222007 | 57 | 356 | 9.0 | 17.0 | 0.03 | 0.51 | 0.51 | 90 | 1003.3 |
| 20260904221006 | 57 | 349 | 8.0 | 15.0 | 0.05 | 0.51 | 0.51 | 90 | 1003.6 |
| 20260904220005 | 56 | 354 | 10.0 | 20.0 | 0.07 | 0.51 | 0.51 | 90 | 1002.9 |
| 20260904215004 | 56 | 8 | 10.0 | 18.0 | 0.09 | 0.51 | 0.51 | 90 | 1002.9 |
| 20260904214005 | 56 | 9 | 11.0 | 18.0 | 0.13 | 0.51 | 0.51 | 90 | 1003.4 |
| 20260904213005 | 56 | 354 | 8.0 | 16.0 | 0.14 | 0.50 | 0.50 | 90 | 1004.2 |
| 20260904211004 | 57 | 349 | 7.0 | 14.0 | 0.12 | 0.46 | 0.46 | 90 | 1004.5 |